Portada
METAR-TAF:

METAR-TAF

Aeroports :

Grafton, Austràlia

latitud: 29-45-36S, longitud: 153-01-48E, altitud: 34 m

Observació

L'informe es va fer fa 59 minuts, a les 02:00 UTC
Vent 7 kt del Sud
Temperatura 29°C
Humitat 58%
Pressió 1008 hPa
Visibilitat 10 km o més
Cel ennuvolat a una alçada de 3500 ft
Cel ennuvolat a una alçada de 4300 ft

METAR: YGFN 270200Z AUTO 17007KT 9999 // BKN035 BKN043 29/20 Q1008

Hora: 13:59 (02:59 UTC)


TAF: manca

Observacions i pronòstics meteorològics de més de 4000 aeroports (METAR i TAF).

Les estacions disponibles són els punts grocs i vermells al mapa.

Posi el ratolí al punt desitjat per veure el nom de l'estació.

Feu clic per veure les observacions i els pronòstics meteorològics.

Per canviar el mapa: feu clic els botons verds amb una creu de color negre per apropar; al botó verd amb un guió per allunyar la imatge; o en les fletxes verdes per a mapes adjacents.


METAR-TAF: